• In Denmark
  • List of Countries
  • For 7 days
  • Water Temperature
  • Satellite Maps
  • Weather Map
  • Weather Widgets
  • user-avatar
    Login

    Hourly Weather Wafra

    Today, 16 December, Saturday

    Time Temperature Precipitation Wind Pressure Humidity
    00:00 +13°C° 0 mm 5 mps 748 mmHg 51%
    01:00 +13°C° 0 mm 5 mps 748 mmHg 51%
    02:00 +12°C° 0 mm 5 mps 748 mmHg 52%
    03:00 +12°C° 0 mm 5 mps 748 mmHg 52%
    04:00 +10°C° 0 mm 5 mps 748 mmHg 53%
    05:00 +11°C° 0 mm 4 mps 749 mmHg 54%
    06:00 +11°C° 0 mm 4 mps 749 mmHg 55%
    07:00 +12°C° 0 mm 5 mps 749 mmHg 54%
    08:00 +13°C° 0 mm 5 mps 750 mmHg 54%
    09:00 +14°C° 0 mm 5 mps 750 mmHg 54%
    10:00 +15°C° 0 mm 5 mps 750 mmHg 49%
    11:00 +18°C° 0 mm 4 mps 750 mmHg 44%
    12:00 +19°C° 0 mm 4 mps 750 mmHg 39%
    13:00 +20°C° 0 mm 4 mps 750 mmHg 37%
    14:00 +20°C° 0 mm 4 mps 750 mmHg 36%
    15:00 +20°C° 0 mm 4 mps 750 mmHg 34%
    16:00 +19°C° 0 mm 3 mps 750 mmHg 38%
    17:00 +18°C° 0 mm 3 mps 750 mmHg 42%
    18:00 +17°C° 0 mm 3 mps 750 mmHg 46%
    19:00 +17°C° 0 mm 2 mps 751 mmHg 49%
    20:00 +16°C° 0 mm 2 mps 751 mmHg 51%
    21:00 +16°C° 0 mm 2 mps 751 mmHg 54%
    22:00 +15°C° 0 mm 2 mps 752 mmHg 57%
    23:00 +15°C° 0 mm 2 mps 752 mmHg 60%

    Tomorrow, 17 December, Sunday

    Time Temperature Precipitation Wind Pressure Humidity
    00:00 +15°C° 0 mm 2 mps 752 mmHg 63%
    01:00 +15°C° 0 mm 2 mps 752 mmHg 66%
    02:00 +15°C° 0 mm 2 mps 752 mmHg 68%
    03:00 +15°C° 0 mm 2 mps 752 mmHg 71%
    04:00 +14°C° 0 mm 3 mps 752 mmHg 73%
    05:00 +14°C° 0 mm 3 mps 752 mmHg 76%
    06:00 +14°C° 0 mm 3 mps 752 mmHg 78%
    07:00 +16°C° 0 mm 3 mps 753 mmHg 73%
    08:00 +17°C° 0 mm 4 mps 753 mmHg 68%
    09:00 +18°C° 0 mm 4 mps 754 mmHg 62%
    10:00 +19°C° 0 mm 4 mps 754 mmHg 56%
    11:00 +21°C° 0 mm 4 mps 754 mmHg 50%
    12:00 +22°C° 0 mm 4 mps 753 mmHg 44%
    13:00 +22°C° 0 mm 4 mps 753 mmHg 42%
    14:00 +22°C° 0 mm 4 mps 752 mmHg 40%
    15:00 +23°C° 0 mm 4 mps 752 mmHg 38%
    16:00 +22°C° 0 mm 3 mps 752 mmHg 38%
    17:00 +20°C° 0 mm 3 mps 752 mmHg 39%
    18:00 +19°C° 0 mm 2 mps 753 mmHg 40%
    19:00 +19°C° 0 mm 2 mps 753 mmHg 40%
    20:00 +18°C° 0 mm 2 mps 753 mmHg 40%
    21:00 +18°C° 0 mm 2 mps 754 mmHg 40%
    22:00 +17°C° 0 mm 2 mps 754 mmHg 39%
    23:00 +17°C° 0 mm 3 mps 754 mmHg 38%

    Day after tomorrow, 18 December, Monday

    Time Temperature Precipitation Wind Pressure Humidity
    00:00 +17°C° 0 mm 3 mps 754 mmHg 38%
    01:00 +17°C° 0 mm 3 mps 754 mmHg 38%
    02:00 +16°C° 0 mm 3 mps 754 mmHg 39%
    03:00 +15°C° 0 mm 4 mps 754 mmHg 40%
    04:00 +15°C° 0 mm 4 mps 754 mmHg 41%
    05:00 +14°C° 0 mm 4 mps 754 mmHg 43%
    06:00 +14°C° 0 mm 4 mps 754 mmHg 44%
    07:00 +15°C° 0 mm 4 mps 755 mmHg 41%
    08:00 +17°C° 0 mm 4 mps 755 mmHg 38%
    09:00 +18°C° 0 mm 4 mps 756 mmHg 35%
    10:00 +19°C° 0 mm 4 mps 755 mmHg 33%
    11:00 +21°C° 0 mm 3 mps 755 mmHg 30%
    12:00 +22°C° 0 mm 3 mps 754 mmHg 27%
    13:00 +22°C° 0 mm 3 mps 754 mmHg 27%
    14:00 +22°C° 0 mm 3 mps 754 mmHg 26%
    15:00 +24°C° 0 mm 3 mps 753 mmHg 26%
    16:00 +21°C° 0 mm 2 mps 753 mmHg 28%
    17:00 +20°C° 0 mm 2 mps 753 mmHg 30%
    18:00 +19°C° 0 mm 2 mps 753 mmHg 33%
    19:00 +18°C° 0 mm 2 mps 754 mmHg 34%
    20:00 +18°C° 0 mm 2 mps 754 mmHg 36%
    21:00 +18°C° 0 mm 1 mps 754 mmHg 37%
    22:00 +17°C° 0 mm 2 mps 754 mmHg 38%
    23:00 +17°C° 0 mm 2 mps 754 mmHg 38%

    19 December, Tuesday

    Time Temperature Precipitation Wind Pressure Humidity
    00:00 +16°C° 0 mm 2 mps 754 mmHg 39%
    01:00 +16°C° 0 mm 2 mps 754 mmHg 40%
    02:00 +15°C° 0 mm 2 mps 754 mmHg 41%
    03:00 +15°C° 0 mm 2 mps 754 mmHg 42%
    04:00 +15°C° 0 mm 2 mps 754 mmHg 42%
    05:00 +14°C° 0 mm 2 mps 754 mmHg 43%
    06:00 +14°C° 0 mm 2 mps 754 mmHg 43%
    07:00 +16°C° 0 mm 2 mps 755 mmHg 39%
    08:00 +17°C° 0 mm 2 mps 755 mmHg 35%
    09:00 +19°C° 0 mm 2 mps 756 mmHg 31%
    10:00 +20°C° 0 mm 2 mps 755 mmHg 30%
    11:00 +21°C° 0 mm 2 mps 755 mmHg 28%
    12:00 +23°C° 0 mm 2 mps 755 mmHg 27%
    13:00 +24°C° 0 mm 2 mps 755 mmHg 26%
    14:00 +24°C° 0 mm 2 mps 754 mmHg 26%
    15:00 +24°C° 0 mm 2 mps 754 mmHg 25%
    16:00 +23°C° 0 mm 2 mps 754 mmHg 28%
    17:00 +22°C° 0 mm 1 mps 754 mmHg 31%
    18:00 +20°C° 0 mm 1 mps 754 mmHg 34%
    19:00 +20°C° 0 mm 1 mps 754 mmHg 36%
    20:00 +19°C° 0 mm 1 mps 754 mmHg 38%
    21:00 +19°C° 0 mm 1 mps 755 mmHg 40%
    22:00 +18°C° 0 mm 1 mps 754 mmHg 40%
    23:00 +18°C° 0 mm 1 mps 754 mmHg 41%

    20 December, Wednesday

    Time Temperature Precipitation Wind Pressure Humidity
    00:00 +18°C° 0 mm 1 mps 754 mmHg 41%
    01:00 +17°C° 0 mm 2 mps 754 mmHg 41%
    02:00 +17°C° 0 mm 2 mps 754 mmHg 41%
    03:00 +16°C° 0 mm 2 mps 753 mmHg 40%
    04:00 +16°C° 0 mm 2 mps 754 mmHg 40%
    05:00 +16°C° 0 mm 2 mps 754 mmHg 40%
    06:00 +16°C° 0 mm 2 mps 754 mmHg 39%
    07:00 +17°C° 0 mm 2 mps 755 mmHg 36%
    08:00 +19°C° 0 mm 3 mps 755 mmHg 34%
    09:00 +20°C° 0 mm 3 mps 755 mmHg 31%
    10:00 +21°C° 0 mm 2 mps 755 mmHg 29%
    11:00 +23°C° 0 mm 2 mps 755 mmHg 26%
    12:00 +24°C° 0 mm 1 mps 754 mmHg 24%
    13:00 +25°C° 0 mm 1 mps 754 mmHg 23%
    14:00 +25°C° 0 mm 1 mps 754 mmHg 23%
    15:00 +25°C° 0 mm 1 mps 753 mmHg 22%
    16:00 +24°C° 0 mm 1 mps 753 mmHg 25%
    17:00 +23°C° 0 mm 2 mps 754 mmHg 29%
    18:00 +21°C° 0 mm 3 mps 754 mmHg 32%
    19:00 +20°C° 0 mm 3 mps 754 mmHg 35%
    20:00 +20°C° 0 mm 3 mps 754 mmHg 37%
    21:00 +19°C° 0 mm 3 mps 754 mmHg 40%
    22:00 +19°C° 0 mm 3 mps 754 mmHg 40%
    23:00 +19°C° 0 mm 3 mps 754 mmHg 40%

    21 December, Thursday

    Time Temperature Precipitation Wind Pressure Humidity
    00:00 +19°C° 0 mm 3 mps 754 mmHg 40%
    01:00 +18°C° 0 mm 3 mps 754 mmHg 39%
    02:00 +18°C° 0 mm 3 mps 753 mmHg 39%
    03:00 +17°C° 0 mm 3 mps 753 mmHg 38%
    04:00 +17°C° 0 mm 3 mps 753 mmHg 38%
    05:00 +17°C° 0 mm 3 mps 753 mmHg 37%
    06:00 +17°C° 0 mm 3 mps 753 mmHg 37%
    07:00 +18°C° 0 mm 3 mps 754 mmHg 34%
    08:00 +19°C° 0 mm 3 mps 754 mmHg 31%
    09:00 +20°C° 0 mm 4 mps 754 mmHg 28%
    10:00 +21°C° 0 mm 4 mps 754 mmHg 25%
    11:00 +23°C° 0 mm 4 mps 753 mmHg 22%
    12:00 +25°C° 0 mm 4 mps 753 mmHg 20%
    13:00 +26°C° 0 mm 4 mps 752 mmHg 19%
    14:00 +26°C° 0 mm 4 mps 752 mmHg 19%
    15:00 +26°C° 0 mm 4 mps 751 mmHg 19%
    16:00 +25°C° 0 mm 4 mps 751 mmHg 22%
    17:00 +23°C° 0 mm 4 mps 751 mmHg 25%
    18:00 +22°C° 0 mm 4 mps 751 mmHg 28%
    19:00 +21°C° 0 mm 5 mps 751 mmHg 31%
    20:00 +21°C° 0 mm 5 mps 751 mmHg 34%
    21:00 +20°C° 0 mm 5 mps 751 mmHg 37%
    22:00 +20°C° 0 mm 5 mps 750 mmHg 39%
    23:00 +19°C° 0 mm 6 mps 750 mmHg 41%
    Show more